Temperature
22 22 21 21 21 20 20 20 20 19 19 19 19 19 18 18 18 18 18 18 18 18 18 18 18 18 18 18 17 17 17 17 17 17 17 17 16 16 16 16 16 16 16
22 22 22 21 21 21 20 20 20 19 19 19 19 19 18 18 18 18 18 18 18 18 18 18 18 18 18 18 17 17 17 17 17 17 17 16 16 16 16 16 16 16 16
22 22 22 22 21 21 21 20 20 20 19 19 19 19 18 18 18 18 18 18 18 18 18 18 18 18 18 17 17 17 17 17 17 17 17 16 16 16 15 15 15 15 15
23 23 22 22 22 22 21 21 20 20 20 19 19 19 19 19 19 18 18 18 18 18 18 18 17 17 17 17 17 17 17 17 17 17 17 17 17 16 15 15 15 15 15
23 23 23 23 23 22 22 21 21 20 20 19 19 19 19 19 18 18 18 18 18 18 18 18 17 17 17 17 17 17 17 17 17 17 17 17 16 16 16 15 15 15 15
24 24 23 23 23 22 22 21 21 20 20 19 19 19 19 19 19 18 18 18 18 18 18 18 17 17 17 17 17 17 17 17 17 17 17 17 16 16 16 15 15 15 14
24 23 23 23 23 23 22 22 21 21 20 20 19 19 19 19 19 19 18 18 18 18 18 18 17 17 17 17 17 17 17 17 17 17 17 17 16 16 16 16 15 14 14
24 24 24 23 23 23 23 22 22 21 21 20 20 19 19 19 19 19 19 18 18 18 18 17 17 17 17 17 17 17 17 17 17 17 17 17 16 16 16 16 15 14 14
24 24 24 24 23 23 23 23 22 22 21 21 20 20 19 19 19 19 19 18 18 18 18 17 17 17 17 17 17 17 17 17 17 17 17 16 16 16 16 16 15 15 14
23 24 24 24 24 24 23 23 22 22 22 21 21 20 20 19 19 19 19 18 18 18 18 17 17 17 17 17 17 17 17 17 17 17 17 16 16 16 16 15 15 15 15
23 24 24 24 24 23 23 23 22 22 22 21 21 20 20 20 19 19 19 19 18 18 18 18 17 17 17 17 17 17 16 16 16 16 16 16 16 16 16 15 15 15 14
24 24 24 24 23 23 23 23 22 22 22 21 21 21 20 20 20 19 19 19 18 18 18 18 18 17 17 17 17 17 16 16 16 16 16 16 16 16 15 15 15 15 14
23 23 23 23 23 23 23 23 23 22 22 21 21 21 20 20 20 20 19 19 18 18 18 18 18 17 17 17 17 17 16 16 16 16 16 16 15 15 15 15 15 14 14
23 23 23 23 23 23 23 23 23 22 22 21 21 21 21 20 20 20 19 19 18 18 18 18 18 17 17 17 17 16 16 16 16 16 15 15 15 15 15 15 15 14 14
23 23 23 23 23 23 23 23 22 22 22 21 21 21 21 20 20 20 19 19 18 18 18 18 18 17 17 17 16 16 16 16 16 16 15 15 15 15 15 15 14 14 14
22 23 23 23 23 23 23 23 22 22 22 21 21 21 20 20 20 19 19 19 19 18 18 18 17 17 17 16 16 16 16 16 16 15 15 15 15 15 14 14 14 14 14
22 22 23 23 23 22 22 22 22 22 21 21 21 21 20 20 20 19 19 19 19 18 18 18 17 17 17 16 16 16 16 16 15 15 15 15 15 14 14 14 14 14 13
22 22 22 22 22 22 22 22 21 21 21 21 20 20 20 20 20 19 19 19 18 18 18 17 17 17 16 16 16 16 16 16 15 15 15 15 14 14 14 14 14 13 13
22 22 22 22 22 22 22 21 21 21 21 20 20 20 20 19 19 19 18 18 18 18 17 17 17 17 16 16 16 16 16 15 15 15 14 14 14 14 14 14 13 13 13
22 22 22 22 22 21 21 21 21 21 20 20 20 19 19 19 19 19 18 18 18 18 17 17 16 16 16 16 16 16 16 15 15 14 14 14 14 14 13 13 13 13 13
21 21 21 21 21 21 21 21 20 21 20 20 20 19 19 19 19 18 18 18 18 17 17 16 16 16 16 16 15 15 15 15 15 14 14 14 14 13 13 13 13 13 12
20 20 21 21 21 21 21 20 20 20 20 19 19 19 19 18 18 18 18 17 17 17 16 16 16 15 15 15 15 15 14 14 14 14 14 14 13 13 13 13 13 12 12
20 20 20 20 20 20 20 20 20 19 19 19 18 18 18 17 17 17 17 17 16 16 16 15 15 15 15 15 14 14 14 14 14 13 13 13 13 13 13 13 12 12 12
19 19 19 19 19 19 19 19 19 19 18 18 18 17 17 17 17 16 16 16 16 15 15 15 15 15 15 14 14 14 14 14 13 13 13 13 12 12 12 12 12 12 12
19 19 19 19 19 19 18 18 18 18 18 18 17 17 17 17 16 16 16 16 15 15 15 15 15 15 15 14 14 14 14 13 13 13 12 12 12 12 12 12 12 12 11
18 18 18 18 18 18 18 17 17 17 17 17 17 16 16 16 16 15 15 15 15 15 15 14 14 14 14 14 14 13 13 13 12 12 12 12 12 12 12 11 11 11 11
Wind_Speed
7 6 7 7 6 5 5 5 5 5 4 3 2 2 1 0 1 1 1 1 2 3 3 2 2 2 3 3 3 3 4 3 3 3 3 4 5 5 4 4 4 4 4
6 7 7 7 8 7 7 6 6 6 5 3 2 2 2 1 1 1 1 1 2 2 3 3 2 2 3 3 3 4 2 2 2 2 2 1 2 4 5 4 3 3 4
12 10 9 9 8 8 8 8 7 6 5 4 3 3 3 2 2 1 1 1 1 2 2 3 2 2 3 3 3 4 4 2 1 1 2 2 2 1 3 4 4 4 4
11 10 10 10 10 10 8 7 7 6 5 5 4 4 3 2 2 1 0 1 2 2 2 3 3 2 2 2 3 3 2 3 2 1 1 1 3 2 1 2 3 4 4
13 13 13 12 11 9 8 7 7 6 5 5 6 5 3 2 1 1 2 1 2 2 2 2 2 2 1 1 2 2 2 2 3 2 1 2 1 2 2 1 1 2 3
12 12 10 9 8 8 8 8 7 6 6 6 6 6 6 4 3 3 2 1 1 1 1 1 1 1 1 1 1 2 2 2 2 2 2 2 2 2 2 2 2 1 1
11 11 11 11 10 10 10 9 9 8 7 7 6 6 6 6 5 4 3 2 1 0 1 1 1 1 1 1 1 2 1 2 2 2 2 2 2 3 3 4 2 1 0
11 12 13 13 12 12 11 10 10 9 8 8 6 5 5 4 4 4 3 3 2 2 1 1 1 1 1 1 1 1 1 1 1 1 1 2 2 3 4 4 4 2 1
12 12 12 12 12 12 12 12 11 9 8 8 7 6 5 5 4 4 3 3 2 2 2 2 2 1 1 1 2 1 1 1 1 1 1 1 1 2 2 4 4 4 3
9 10 11 12 12 11 10 10 10 10 9 8 7 6 5 5 4 4 4 3 2 2 2 2 2 1 1 1 2 2 1 2 1 1 1 1 1 2 3 3 2 2 3
9 10 10 10 9 9 9 10 9 9 8 8 7 6 5 5 5 4 4 3 3 3 3 2 2 2 1 1 2 2 2 2 1 1 1 1 2 2 2 3 3 3 3
7 7 8 8 9 10 10 10 9 9 8 8 7 6 5 5 5 5 4 4 3 3 3 3 2 2 2 2 2 2 2 2 2 1 2 1 1 2 2 2 3 3 3
6 6 6 8 9 10 10 10 10 10 8 8 8 7 6 6 5 5 4 4 4 3 3 3 3 2 3 3 3 3 2 2 2 2 2 1 2 2 2 2 3 3 3
6 7 6 6 7 8 9 9 9 9 9 9 8 8 8 7 6 5 5 4 4 4 4 3 3 3 3 3 3 3 3 2 2 2 2 2 2 2 3 3 3 4 4
5 7 7 6 6 7 8 8 8 8 9 9 9 8 7 6 6 5 5 5 4 4 4 3 3 3 3 3 3 3 3 3 2 2 2 1 2 3 3 3 4 5 4
6 6 6 6 7 7 8 8 8 8 9 9 8 7 6 6 6 5 5 5 4 4 3 3 3 3 2 4 6 5 3 3 2 2 1 1 2 2 3 4 6 6 6
6 5 6 6 6 6 7 8 7 7 7 7 7 7 6 6 5 6 5 5 4 4 3 3 3 2 2 5 6 6 4 3 2 2 1 1 1 2 2 4 4 3 4
5 4 4 4 4 4 5 6 7 8 7 7 6 6 6 6 5 5 6 5 4 4 4 3 3 3 2 4 5 6 4 3 2 2 2 2 1 1 3 3 3 2 1
4 4 4 4 4 5 6 7 6 7 7 7 7 7 7 6 6 6 5 5 5 4 4 4 4 4 3 5 6 6 4 3 2 1 1 2 2 2 4 4 3 1 0
3 3 4 4 5 5 7 8 7 7 7 7 6 6 7 7 7 7 6 4 4 4 4 4 3 4 3 5 7 7 4 3 2 1 1 1 2 2 4 4 3 3 2
3 4 4 5 5 6 7 7 6 6 6 6 6 6 6 7 7 6 5 5 5 5 4 3 3 3 3 4 6 7 4 4 3 2 2 2 3 3 4 4 4 4 3
3 4 4 3 3 5 7 6 4 4 4 5 6 6 6 6 5 6 5 5 5 5 4 3 2 1 2 3 5 7 6 5 4 3 3 3 4 4 4 4 4 5 4
3 3 4 4 3 4 6 6 4 4 5 5 5 5 5 5 5 6 6 5 5 4 4 3 3 2 2 3 5 6 7 7 4 3 4 4 4 3 3 3 3 4 3
3 3 5 5 3 2 3 4 4 5 6 6 5 5 5 4 4 4 5 5 5 5 4 4 4 3 3 3 3 3 4 5 4 2 2 2 2 2 2 2 2 2 3
2 4 5 5 4 3 3 3 4 6 6 6 5 5 5 5 4 3 3 4 5 6 6 5 5 5 5 6 7 6 5 5 4 3 1 1 1 1 1 1 2 2 2
3 3 4 4 4 4 3 3 4 6 7 6 5 4 4 4 4 4 2 1 2 5 7 7 6 5 6 6 8 8 8 7 8 5 3 3 3 4 4 4 3 3 4
Wind_Direction
204 182 178 172 167 167 169 168 162 157 141 126 126 121 126 57 24 13 47 117 122 125 127 125 115 124 131 136 132 122 109 100 106 91 68 50 50 54 47 52 62 61 59
195 189 181 177 178 180 180 182 181 171 168 157 146 143 136 129 106 28 48 110 129 136 145 135 134 129 126 125 131 130 123 126 123 117 110 73 42 43 42 46 54 53 57
197 194 188 188 184 188 188 190 189 179 176 161 125 102 76 52 51 40 18 23 123 138 133 129 126 126 138 156 162 156 153 164 165 142 144 148 171 82 41 43 47 48 51
197 195 192 193 196 198 187 185 182 178 174 159 154 156 162 177 202 177 121 23 63 106 126 128 128 134 147 167 186 174 168 163 177 156 110 147 152 150 122 44 43 47 48
195 196 197 199 199 190 181 182 175 176 174 166 167 166 173 182 160 126 105 64 46 68 106 127 131 137 153 170 174 165 167 172 177 172 152 120 98 124 147 150 75 52 47
197 196 194 187 188 180 175 175 172 180 177 173 175 179 181 176 163 161 155 123 53 36 61 123 133 148 165 181 186 176 173 183 176 177 174 170 166 161 149 154 155 115 57
191 188 185 185 186 182 181 179 177 186 181 179 184 188 185 180 182 182 179 174 173 224 264 166 152 179 192 175 159 153 168 182 184 192 195 186 184 158 147 146 148 140 115
191 192 191 189 190 188 184 181 183 189 182 180 185 187 181 179 186 185 180 183 194 211 207 166 160 158 147 139 133 131 162 162 184 199 184 179 176 159 153 152 149 143 134
192 193 190 189 190 189 187 184 184 188 185 184 180 181 178 178 183 177 175 183 191 186 166 161 154 144 134 136 131 122 135 126 134 146 144 147 150 154 155 153 158 156 171
191 191 191 191 190 188 184 179 182 187 185 180 182 183 177 180 178 166 170 174 175 157 146 146 143 124 111 115 120 113 109 109 91 109 114 116 132 133 146 155 159 161 161
191 193 190 186 180 176 176 178 180 182 180 179 177 171 170 172 173 174 181 178 170 163 160 157 144 138 126 117 122 127 119 113 97 90 114 121 130 136 145 146 147 146 143
180 180 180 172 171 177 179 181 181 184 185 176 169 170 169 169 174 181 182 172 170 168 159 146 139 138 126 121 127 125 116 119 115 107 105 102 115 119 136 146 152 155 150
162 160 164 172 178 181 181 181 181 183 177 167 164 164 169 180 183 183 176 170 169 162 154 148 150 149 139 130 130 128 120 118 118 118 118 116 125 131 141 144 150 150 141
162 164 173 178 181 178 176 176 178 175 171 166 168 175 183 184 182 178 173 172 168 164 167 167 165 159 147 139 136 127 119 109 101 103 114 123 140 158 159 150 148 139 131
162 173 178 178 179 175 171 169 170 170 169 167 174 184 181 172 170 173 172 164 164 172 169 161 157 161 158 157 150 145 134 123 106 90 88 104 125 142 158 156 154 145 140
182 181 175 173 179 179 175 166 167 167 163 168 177 175 170 169 173 177 170 161 163 160 154 162 165 172 185 162 154 150 142 135 129 115 86 86 87 109 121 140 154 156 159
185 185 184 182 187 184 175 171 169 156 157 166 170 165 165 167 173 172 164 167 168 161 155 160 151 159 186 168 158 151 147 143 143 138 122 101 76 96 116 126 132 147 163
177 185 188 181 173 163 157 154 149 151 157 164 167 164 163 167 163 163 167 170 164 165 168 166 158 149 167 156 146 142 139 137 145 155 159 140 115 118 129 132 129 137 171
177 176 176 170 157 152 148 140 146 150 159 171 175 173 169 167 167 173 177 175 164 166 167 158 164 164 173 162 157 148 139 138 144 143 142 151 151 140 136 136 140 141 241
146 150 142 131 138 146 144 142 152 159 176 183 178 173 171 170 175 183 182 171 160 167 160 157 169 172 179 174 164 156 149 153 164 153 177 169 171 163 154 155 161 183 214
134 133 131 138 152 149 142 146 154 175 186 170 161 169 177 178 175 174 173 159 155 155 160 168 179 182 194 190 179 172 164 172 174 191 214 225 199 190 186 181 190 204 189
121 127 125 121 125 137 139 143 168 183 162 154 154 165 171 172 168 164 165 160 157 159 166 170 186 199 202 199 197 192 190 179 178 202 216 221 202 199 197 200 203 187 168
134 127 130 126 129 143 147 157 178 162 152 149 156 159 158 162 163 166 166 159 157 165 175 179 196 216 215 213 205 202 201 197 196 209 209 212 208 207 210 213 201 184 176
144 138 138 141 153 162 152 159 157 152 151 153 157 154 150 149 150 158 162 165 173 177 183 192 206 215 220 222 205 202 203 198 201 203 199 204 214 205 215 218 210 199 199
154 150 154 159 166 162 156 159 161 153 150 154 156 154 152 152 155 165 172 184 196 192 195 209 207 205 222 225 203 195 201 194 189 165 150 159 193 230 249 239 226 211 202
160 158 155 157 164 163 166 171 163 160 157 159 163 162 161 160 163 167 164 171 205 205 206 205 199 216 222 210 200 205 204 187 167 158 196 216 219 224 232 236 238 229 225
Height
1524 1526 1528 1530 1532 1534 1535 1537 1538 1539 1540 1541 1542 1543 1544 1545 1545 1545 1546 1546 1546 1547 1548 1548 1549 1549 1550 1550 1550 1551 1551 1552 1552 1552 1553 1553 1553 1553 1553 1553 1554 1554 1554
1522 1524 1526 1529 1531 1532 1534 1536 1538 1539 1540 1542 1543 1543 1544 1544 1545 1546 1546 1546 1547 1547 1548 1549 1549 1550 1550 1550 1550 1551 1551 1551 1552 1552 1552 1553 1555 1553 1553 1553 1553 1553 1554
1519 1521 1524 1526 1529 1531 1533 1535 1537 1539 1540 1541 1542 1543 1544 1544 1545 1546 1546 1547 1547 1548 1548 1548 1549 1549 1549 1549 1550 1550 1551 1551 1551 1552 1552 1552 1552 1553 1554 1553 1553 1553 1553
1516 1518 1521 1524 1526 1529 1532 1534 1536 1538 1539 1541 1542 1543 1543 1544 1545 1546 1546 1547 1547 1548 1548 1548 1549 1549 1549 1549 1549 1550 1550 1550 1550 1551 1551 1552 1552 1552 1553 1553 1553 1553 1553
1512 1515 1518 1521 1524 1527 1530 1532 1535 1537 1538 1540 1541 1542 1543 1544 1545 1545 1546 1546 1547 1548 1548 1548 1548 1548 1548 1548 1549 1549 1549 1549 1549 1550 1550 1550 1550 1551 1551 1552 1552 1553 1552
1508 1511 1515 1519 1522 1525 1528 1530 1533 1535 1537 1539 1540 1541 1542 1543 1544 1545 1546 1546 1547 1547 1548 1548 1548 1548 1548 1548 1548 1548 1548 1548 1548 1549 1549 1549 1549 1549 1549 1550 1550 1551 1552
1504 1508 1511 1515 1518 1521 1525 1528 1530 1533 1535 1537 1538 1540 1542 1543 1544 1544 1545 1546 1547 1547 1547 1547 1547 1547 1547 1547 1547 1547 1547 1547 1547 1547 1547 1547 1548 1548 1548 1548 1548 1549 1550
1500 1503 1507 1511 1515 1518 1522 1525 1528 1531 1533 1535 1537 1539 1541 1542 1543 1544 1545 1546 1546 1546 1547 1547 1547 1546 1546 1546 1546 1546 1546 1546 1546 1546 1546 1546 1546 1546 1546 1547 1547 1547 1549
1496 1499 1503 1508 1512 1515 1519 1522 1526 1529 1531 1534 1536 1537 1539 1540 1542 1543 1544 1545 1545 1546 1546 1546 1546 1546 1546 1546 1546 1545 1545 1545 1545 1545 1545 1544 1544 1544 1545 1545 1546 1547 1547
1493 1497 1500 1504 1508 1512 1516 1520 1524 1527 1530 1532 1534 1536 1538 1539 1541 1542 1543 1544 1544 1545 1545 1545 1545 1545 1545 1545 1545 1544 1544 1544 1544 1544 1543 1543 1543 1543 1543 1544 1544 1545 1546
1491 1494 1498 1502 1506 1510 1514 1518 1521 1524 1528 1530 1532 1535 1536 1538 1539 1540 1541 1542 1543 1544 1544 1544 1545 1544 1544 1544 1544 1543 1543 1543 1543 1542 1542 1542 1542 1542 1542 1542 1543 1544 1544
1489 1492 1496 1500 1503 1507 1511 1515 1519 1522 1525 1528 1531 1533 1535 1536 1538 1539 1539 1541 1542 1543 1543 1543 1543 1543 1543 1543 1543 1542 1542 1542 1541 1541 1541 1541 1541 1541 1541 1541 1542 1542 1543
1488 1491 1494 1497 1500 1504 1508 1512 1516 1519 1523 1526 1529 1531 1533 1534 1536 1537 1538 1539 1540 1541 1541 1542 1542 1542 1541 1541 1541 1541 1541 1540 1540 1540 1540 1540 1540 1540 1540 1540 1541 1541 1541
1486 1489 1492 1495 1498 1501 1505 1509 1513 1517 1520 1523 1526 1528 1530 1532 1534 1535 1536 1537 1538 1539 1539 1540 1540 1540 1540 1540 1540 1540 1540 1539 1539 1539 1539 1539 1539 1539 1539 1539 1540 1540 1540
1485 1488 1491 1493 1496 1499 1502 1506 1510 1514 1517 1520 1523 1525 1527 1529 1531 1532 1533 1535 1535 1536 1537 1537 1537 1538 1538 1538 1538 1539 1539 1538 1538 1538 1538 1538 1538 1538 1538 1538 1539 1539 1540
1484 1486 1489 1492 1495 1497 1500 1503 1507 1511 1514 1517 1520 1522 1524 1526 1528 1529 1531 1532 1533 1534 1534 1535 1535 1535 1535 1535 1536 1537 1537 1537 1537 1537 1537 1537 1537 1537 1537 1538 1538 1539 1539
1482 1485 1487 1490 1492 1495 1498 1501 1504 1508 1511 1514 1517 1519 1522 1524 1525 1527 1528 1529 1530 1531 1532 1533 1533 1533 1533 1533 1534 1535 1536 1536 1536 1536 1536 1536 1536 1536 1537 1537 1537 1537 1538
1481 1483 1486 1488 1491 1494 1496 1499 1502 1505 1508 1511 1514 1516 1518 1521 1522 1524 1525 1526 1527 1529 1529 1529 1530 1531 1531 1532 1532 1533 1533 1534 1534 1535 1535 1535 1535 1535 1536 1536 1536 1536 1536
1480 1482 1485 1487 1489 1492 1495 1497 1500 1503 1506 1508 1511 1513 1516 1518 1520 1521 1522 1523 1524 1525 1526 1527 1528 1529 1529 1530 1531 1531 1531 1532 1533 1533 1534 1534 1534 1534 1534 1534 1534 1535 1535
1479 1481 1484 1486 1488 1491 1493 1496 1498 1500 1503 1505 1508 1510 1513 1514 1516 1518 1520 1521 1522 1523 1525 1525 1526 1526 1527 1527 1528 1529 1529 1530 1531 1531 1532 1532 1532 1532 1532 1533 1533 1533 1533
1478 1481 1483 1484 1487 1489 1491 1493 1495 1497 1500 1502 1505 1507 1510 1511 1512 1514 1516 1517 1518 1520 1521 1523 1523 1524 1525 1526 1526 1527 1527 1528 1529 1529 1530 1530 1530 1531 1531 1531 1531 1531 1532
1477 1480 1481 1483 1485 1487 1489 1491 1493 1496 1498 1500 1501 1504 1506 1507 1509 1510 1512 1514 1515 1516 1517 1519 1520 1521 1522 1523 1524 1525 1525 1526 1527 1527 1528 1528 1529 1529 1529 1529 1529 1529 1530
1476 1478 1480 1482 1484 1486 1488 1490 1492 1494 1496 1498 1499 1501 1503 1504 1506 1507 1508 1510 1512 1513 1515 1516 1517 1518 1519 1520 1521 1522 1522 1523 1524 1524 1525 1526 1526 1526 1526 1526 1527 1527 1527
1474 1476 1478 1480 1483 1485 1487 1489 1491 1493 1494 1495 1497 1499 1500 1502 1504 1505 1506 1507 1509 1510 1511 1512 1513 1514 1516 1516 1517 1518 1519 1519 1520 1521 1522 1523 1523 1523 1523 1524 1524 1524 1524
1473 1475 1477 1479 1481 1483 1485 1487 1489 1491 1492 1494 1495 1497 1498 1499 1501 1502 1503 1505 1506 1507 1508 1509 1510 1511 1512 1513 1514 1514 1515 1515 1516 1517 1518 1518 1519 1519 1520 1520 1520 1520 1520
1471 1473 1475 1477 1479 1481 1483 1485 1487 1489 1490 1491 1493 1494 1495 1497 1498 1499 1501 1502 1504 1504 1505 1506 1507 1508 1509 1510 1511 1511 1512 1512 1512 1513 1513 1514 1514 1514 1515 1516 1516 1516 1516